Regional Weather Roundup
Issued by NWS Midland/Odessa, TX

Skip options and go directly to product.
Home | Oldest Version | Previous Version | Current Version | All | Text Only | Save Text | Print | Product List | Glossary Off

Skip product version selection by date and time.   

742
ASUS44 KMAF 251110
RWRMAF
MIDLAND AREA WEATHER ROUNDUP
NATIONAL WEATHER SERVICE MIDLAND TX
600 AM CDT THU AUG 25 2016

...IN SOUTHWEST TEXAS AND SOUTHEAST NEW MEXICO...

CITY           SKY/WX    TMP DP  RH WIND       PRES   REMARKS
ALPINE         CLOUDY    65  59  80 W8        30.22S
ANDREWS        NOT AVBL
ARTESIA        CLOUDY    64  64 100 NW9       30.12S
BIG SPRING     PTCLDY    73  68  86 SE14      30.10S
CARLSBAD       MOCLDY    63  63 100 NW3       30.08R FOG
DRYDEN           N/A     73  69  87 E6        30.04F
FORT STOCKTON  PTCLDY    71  64  78 S12       30.07R
GUAD PASS      CLOUDY    66  59  78 SW6       30.21S
HOBBS          CLEAR     63  63 100 CALM      30.13S
MARFA          CLOUDY   N/A N/A N/A CALM      30.21S
MIDLAND AIRPK  PTCLDY    72  65  79 SE9       30.09R
MIDLAND INTL   CLOUDY    69  65  86 SE7       30.08R
ODESSA         CLEAR     72  65  78 S9        30.08S
PECOS          MOCLDY    66  65  96 CALM      30.04S
PRESIDIO       NOT AVBL
SEMINOLE       CLEAR     65  63  96 CALM      30.11S
SNYDER           N/A     69  66  89 S7        30.10R
WINK           PTCLDY    69  65  86 SE9       30.04R
$$
...OTHER STATIONS IN TEXAS...

CITY           SKY/WX    TMP DP  RH WIND       PRES   REMARKS
ABILENE        CLEAR     72  68  87 S8        30.08S
AMARILLO       PTCLDY    63  59  87 SE12      30.14S
AUSTIN         MOCLDY    75  75 100 S7        30.04F
BROWNSVILLE    PTCLDY    76  75  97 E5        30.01S
CORPUS CHRISTI MOCLDY    75  74  96 CALM      30.01F
DALLAS FTW     PTCLDY    77  71  82 S7        30.05R
DEL RIO        PTCLDY    74  72  93 E8        30.03R
EL PASO        PTCLDY    70  55  59 N5        30.09R
HOUSTON INT    MOCLDY    75  74  96 CALM      30.06S
LUBBOCK        MOCLDY    66  64  93 NE3       30.12S
SAN ANGELO     CLEAR     73  68  84 S5        30.07S
SAN ANTONIO    MOCLDY    76  72  87 S8        30.06F
WACO           CLEAR     75  73  93 S6        30.05S
WICHITA FALLS  NOT AVBL
$$
...OTHER LOCATIONS IN NEW MEXICO...

CITY           SKY/WX    TMP DP  RH WIND       PRES   REMARKS
ALAMAGORDO     CLOUDY    64  54  68 NE6       30.12S
ALBUQUERQUE    CLEAR     59  49  69 E5        30.24R
CANNON AFB     CLOUDY    59  57  93 N10       30.17R
CLOVIS         PTCLDY    57  52  82 N10       30.18R
HOLLOMAN AFB   CLEAR     63  55  76 NE8       30.10R
ROSWELL        CLOUDY    65  62  90 E6        30.12R
RUIDOSO          N/A     54  48  82 NW8       30.31R
SANTA FE       CLEAR     53  47  79 CALM      30.29R
TRUTH OR CONSE CLEAR     63  48  58 NW7       30.16S
TUCUMCARI      CLEAR     61  58  90 NW3       30.18R
$$

USA.gov is the U.S. government's official web portal to all federal, state and local government web resources and services.